When you browse on this site, cookies collect data to enhance your experience and personalize the content and advertising you see.
Visit our Privacy Policy to learn more. By continuing to use the site, you agree to this use of cookies and data.

Météo par heure à Bandar Seri Begavan

Ce jour, 4 Juillet, Samedi

Heure Température Précipitation Vent Pression Humidité
00:00 +27°C° 1.8 mm 2 m/s 756 mmHg 91%
01:00 +27°C° 1.8 mm 2 m/s 756 mmHg 92%
02:00 +26°C° 0 mm 2 m/s 755 mmHg 91%
03:00 +26°C° 0.6 mm 2 m/s 755 mmHg 92%
04:00 +26°C° 0.6 mm 2 m/s 755 mmHg 93%
05:00 +26°C° 0.6 mm 2 m/s 756 mmHg 94%
06:00 +26°C° 0.4 mm 2 m/s 756 mmHg 94%
07:00 +25°C° 0.4 mm 2 m/s 756 mmHg 94%
08:00 +25°C° 0.4 mm 2 m/s 756 mmHg 95%
09:00 +27°C° 0 mm 2 m/s 756 mmHg 87%
10:00 +28°C° 0 mm 2 m/s 756 mmHg 79%
11:00 +30°C° 0 mm 2 m/s 756 mmHg 71%
12:00 +30°C° 0 mm 2 m/s 756 mmHg 68%
13:00 +31°C° 0 mm 2 m/s 755 mmHg 66%
14:00 +31°C° 0 mm 2 m/s 754 mmHg 63%
15:00 +31°C° 0.2 mm 2 m/s 754 mmHg 67%
16:00 +30°C° 0.2 mm 2 m/s 754 mmHg 71%
17:00 +29°C° 0.2 mm 2 m/s 754 mmHg 76%
18:00 +29°C° 0.4 mm 2 m/s 754 mmHg 79%
19:00 +28°C° 0.4 mm 2 m/s 755 mmHg 82%
20:00 +27°C° 0.4 mm 2 m/s 755 mmHg 85%
21:00 +27°C° 0.2 mm 2 m/s 755 mmHg 87%
22:00 +27°C° 0.2 mm 2 m/s 756 mmHg 89%
23:00 +26°C° 0.2 mm 2 m/s 756 mmHg 90%

Demain, 5 Juillet, Dimanche

Heure Température Précipitation Vent Pression Humidité
00:00 +26°C° 0.1 mm 2 m/s 756 mmHg 90%
01:00 +26°C° 0.1 mm 2 m/s 755 mmHg 90%
02:00 +26°C° 0.1 mm 2 m/s 755 mmHg 90%
03:00 +26°C° 0.1 mm 2 m/s 755 mmHg 90%
04:00 +25°C° 0.1 mm 2 m/s 754 mmHg 90%
05:00 +25°C° 0.1 mm 2 m/s 754 mmHg 89%
06:00 +26°C° 0 mm 2 m/s 754 mmHg 87%
07:00 +27°C° 0 mm 1 m/s 755 mmHg 85%
08:00 +27°C° 0 mm 1 m/s 755 mmHg 82%
09:00 +30°C° 0 mm 1 m/s 755 mmHg 72%
10:00 +32°C° 0 mm 1 m/s 755 mmHg 62%
11:00 +32°C° 0 mm 0 m/s 755 mmHg 52%
12:00 +34°C° 0 mm 1 m/s 754 mmHg 53%
13:00 +35°C° 0 mm 2 m/s 753 mmHg 54%
14:00 +34°C° 0 mm 3 m/s 753 mmHg 55%
15:00 +34°C° 0 mm 3 m/s 752 mmHg 59%
16:00 +33°C° 0 mm 3 m/s 752 mmHg 62%
17:00 +31°C° 0 mm 2 m/s 752 mmHg 66%
18:00 +30°C° 0 mm 2 m/s 753 mmHg 70%
19:00 +29°C° 0 mm 2 m/s 753 mmHg 74%
20:00 +28°C° 0 mm 1 m/s 754 mmHg 77%
21:00 +28°C° 0 mm 1 m/s 754 mmHg 79%
22:00 +28°C° 0 mm 1 m/s 754 mmHg 80%
23:00 +28°C° 0 mm 1 m/s 755 mmHg 82%

Après-demain, 6 Juillet, Lundi

Heure Température Précipitation Vent Pression Humidité
00:00 +27°C° 0.1 mm 1 m/s 754 mmHg 84%
01:00 +27°C° 0.1 mm 1 m/s 754 mmHg 86%
02:00 +26°C° 0.1 mm 1 m/s 753 mmHg 88%
03:00 +26°C° 0.3 mm 1 m/s 753 mmHg 90%
04:00 +26°C° 0.3 mm 1 m/s 753 mmHg 92%
05:00 +25°C° 0.3 mm 1 m/s 753 mmHg 94%
06:00 +26°C° 0.1 mm 1 m/s 754 mmHg 91%
07:00 +27°C° 0.1 mm 1 m/s 754 mmHg 89%
08:00 +27°C° 0.1 mm 1 m/s 755 mmHg 86%
09:00 +30°C° 0 mm 1 m/s 754 mmHg 76%
10:00 +32°C° 0 mm 1 m/s 754 mmHg 66%
11:00 +34°C° 0 mm 1 m/s 754 mmHg 56%
12:00 +33°C° 0.5 mm 1 m/s 754 mmHg 65%
13:00 +31°C° 0.5 mm 2 m/s 753 mmHg 74%
14:00 +30°C° 0.5 mm 3 m/s 753 mmHg 84%
15:00 +30°C° 0.8 mm 3 m/s 753 mmHg 84%
16:00 +30°C° 0.8 mm 2 m/s 752 mmHg 84%
17:00 +30°C° 0.8 mm 2 m/s 752 mmHg 83%
18:00 +29°C° 0.4 mm 2 m/s 753 mmHg 86%
19:00 +28°C° 0.4 mm 2 m/s 754 mmHg 88%
20:00 +27°C° 0.4 mm 1 m/s 754 mmHg 90%
21:00 +27°C° 0.5 mm 1 m/s 755 mmHg 91%
22:00 +27°C° 0.5 mm 1 m/s 755 mmHg 92%
23:00 +26°C° 0.5 mm 1 m/s 755 mmHg 93%

7 Juillet, Mardi

Heure Température Précipitation Vent Pression Humidité
00:00 +26°C° 0.2 mm 1 m/s 755 mmHg 93%
01:00 +26°C° 0.2 mm 1 m/s 755 mmHg 93%
02:00 +26°C° 0.2 mm 1 m/s 755 mmHg 93%
03:00 +26°C° 0.2 mm 1 m/s 755 mmHg 93%
04:00 +26°C° 0.2 mm 1 m/s 754 mmHg 93%
05:00 +25°C° 0.2 mm 1 m/s 754 mmHg 93%
06:00 +26°C° 0 mm 1 m/s 755 mmHg 91%
07:00 +27°C° 0 mm 1 m/s 755 mmHg 89%
08:00 +27°C° 0 mm 1 m/s 756 mmHg 87%
09:00 +29°C° 0 mm 1 m/s 755 mmHg 78%
10:00 +31°C° 0 mm 1 m/s 755 mmHg 69%
11:00 +33°C° 0 mm 1 m/s 755 mmHg 60%
12:00 +32°C° 0.3 mm 2 m/s 755 mmHg 64%
13:00 +32°C° 0.3 mm 2 m/s 754 mmHg 67%
14:00 +33°C° 0.3 mm 3 m/s 753 mmHg 70%
15:00 +31°C° 1.6 mm 3 m/s 753 mmHg 76%
16:00 +30°C° 1.6 mm 3 m/s 753 mmHg 82%
17:00 +29°C° 1.6 mm 3 m/s 753 mmHg 87%
18:00 +29°C° 1.5 mm 3 m/s 753 mmHg 88%
19:00 +28°C° 1.5 mm 3 m/s 754 mmHg 89%
20:00 +27°C° 1.5 mm 2 m/s 755 mmHg 89%
21:00 +27°C° 0 mm 2 m/s 755 mmHg 90%
22:00 +27°C° 0 mm 1 m/s 755 mmHg 90%
23:00 +27°C° 0 mm 1 m/s 756 mmHg 90%

8 Juillet, Mercredi

Heure Température Précipitation Vent Pression Humidité
00:00 +26°C° 0.2 mm 1 m/s 755 mmHg 91%
01:00 +26°C° 0.2 mm 1 m/s 755 mmHg 92%
02:00 +26°C° 0.2 mm 1 m/s 754 mmHg 93%
03:00 +26°C° 0 mm 1 m/s 754 mmHg 94%
04:00 +25°C° 0 mm 1 m/s 754 mmHg 94%
05:00 +25°C° 0 mm 2 m/s 754 mmHg 95%
06:00 +26°C° 0 mm 2 m/s 754 mmHg 94%
07:00 +26°C° 0 mm 1 m/s 755 mmHg 93%
08:00 +27°C° 0 mm 1 m/s 755 mmHg 92%
09:00 +29°C° 0 mm 1 m/s 755 mmHg 82%
10:00 +31°C° 0 mm 1 m/s 755 mmHg 72%
11:00 +33°C° 0 mm 1 m/s 755 mmHg 61%
12:00 +32°C° 0.8 mm 1 m/s 754 mmHg 69%
13:00 +31°C° 0.8 mm 2 m/s 754 mmHg 76%
14:00 +30°C° 0.8 mm 3 m/s 753 mmHg 84%
15:00 +30°C° 0.7 mm 2 m/s 753 mmHg 82%
16:00 +30°C° 0.7 mm 2 m/s 753 mmHg 81%
17:00 +30°C° 0.7 mm 2 m/s 753 mmHg 80%
18:00 +29°C° 0.4 mm 2 m/s 753 mmHg 82%
19:00 +28°C° 0.4 mm 1 m/s 753 mmHg 85%
20:00 +27°C° 0.4 mm 1 m/s 754 mmHg 88%
21:00 +27°C° 0 mm 1 m/s 754 mmHg 89%
22:00 +27°C° 0 mm 1 m/s 754 mmHg 91%
23:00 +26°C° 0 mm 2 m/s 755 mmHg 92%

9 Juillet, Jeudi

Heure Température Précipitation Vent Pression Humidité
00:00 +26°C° 0 mm 2 m/s 754 mmHg 92%
01:00 +26°C° 0 mm 2 m/s 754 mmHg 93%
02:00 +25°C° 0 mm 2 m/s 753 mmHg 93%
03:00 +25°C° 0.1 mm 2 m/s 753 mmHg 94%
04:00 +25°C° 0.1 mm 2 m/s 753 mmHg 94%
05:00 +25°C° 0.1 mm 2 m/s 753 mmHg 94%
06:00 +26°C° 0 mm 2 m/s 754 mmHg 91%
07:00 +27°C° 0 mm 1 m/s 754 mmHg 88%
08:00 +27°C° 0 mm 1 m/s 754 mmHg 85%
09:00 +29°C° 0 mm 1 m/s 754 mmHg 77%
10:00 +31°C° 0 mm 1 m/s 754 mmHg 68%
11:00 +34°C° 0 mm 1 m/s 754 mmHg 59%
12:00 +33°C° 0 mm 1 m/s 753 mmHg 59%
13:00 +34°C° 0 mm 2 m/s 753 mmHg 60%
14:00 +34°C° 0 mm 3 m/s 752 mmHg 61%
15:00 +33°C° 0.8 mm 3 m/s 752 mmHg 68%
16:00 +31°C° 0.8 mm 3 m/s 751 mmHg 76%
17:00 +30°C° 0.8 mm 3 m/s 751 mmHg 83%
18:00 +29°C° 1.2 mm 2 m/s 752 mmHg 85%
19:00 +28°C° 1.2 mm 2 m/s 752 mmHg 88%
20:00 +27°C° 1.2 mm 2 m/s 753 mmHg 91%
21:00 +27°C° 1.5 mm 1 m/s 753 mmHg 91%
22:00 +27°C° 1.5 mm 1 m/s 754 mmHg 91%
23:00 +25°C° 1.5 mm 0 m/s 754 mmHg 91%
Voir plus